Flag for Russia Weather past 2 weeks in Murmansk, Russia

34 °F

Passing clouds.

Feels Like: 31 °F
Forecast: 32 / 40 °F
Wind: 3 mph from Northeast

Location: Murmansk Airport

Current Time: Oct 4, 2015 at 8:30:13 PM

Latest Report: Oct 4, 2015 at 7:30 PM

Visibility: N/A

Pressure: 29.53 "Hg

Humidity: 81%

Dew point: 28 °F

Location of MurmanskLocation

Historic Weather in Murmansk — Graph


Murmansk temperature yesterday

Maximum temperature yesterday: 41 °F (at 3:30 PM)
Minimum temperature yesterday: 25 °F (at 11:30 PM)
Average temperature yesterday: 35 °F

Past Weeks' High & Low Weather Summary

High61 °F (Sep 20, 1:00 PM)100% (Sep 21, 5:00 AM)30.57 "Hg (Sep 21, 5:00 AM)
Low21 °F (Oct 4, 6:30 AM)38% (Sep 30, 3:00 PM)29.09 "Hg (Oct 2, 4:30 PM)
Average44 °F80%29.83 "Hg
* Reported Sep 19 7:00 PM — Oct 4 7:00 PM, Murmansk, Weather by CustomWeather, © 2015

Note: Actual official high and low records may vary slightly from our data, if they occured in-between our weather recording intervals... More about our weather records


Murmansk weather history for previous 24 hours

Time TempWeatherWind HumidityBarometerVisibility
7:00 PM
Sun, Oct 4
34 °FPassing clouds.3 mph81%29.53 "HgN/A
6:30 PM34 °FSprinkles. Scattered clouds.3 mph75%29.53 "HgN/A
6:00 PM34 °FScattered clouds.3 mph81%29.53 "HgN/A
5:30 PM34 °FScattered clouds.3 mph81%29.53 "HgN/A
5:00 PM34 °FScattered clouds.1 mph81%29.53 "HgN/A
4:30 PM34 °FScattered clouds.1 mph81%29.53 "HgN/A
4:00 PM34 °FScattered clouds.1 mph81%29.53 "HgN/A
3:30 PM34 °FScattered clouds.No wind81%29.56 "HgN/A
3:00 PM34 °FScattered clouds.No wind81%29.56 "HgN/A
2:30 PM34 °FScattered clouds.1 mph81%29.56 "HgN/A
2:00 PM34 °FScattered clouds.3 mph81%29.59 "HgN/A
1:30 PM34 °FScattered clouds.3 mph75%29.59 "HgN/A
1:00 PM32 °FSunny.1 mph87%29.59 "Hg10 mi
12:00 PM32 °FSunny.1 mph80%29.62 "Hg10 mi
11:30 AM30 °FSunny.3 mph80%29.62 "Hg10 mi
11:00 AM30 °FSunny.3 mph80%29.65 "Hg10 mi
10:30 AM30 °FSunny.3 mph80%29.65 "Hg10 mi
10:00 AM30 °FSunny.3 mph80%29.65 "Hg10 mi
9:30 AM30 °FSunny.3 mph80%29.68 "Hg10 mi
9:00 AM28 °FPassing clouds.1 mph86%29.68 "HgN/A
8:30 AM25 °FPassing clouds.1 mph93%29.68 "HgN/A
8:00 AM23 °FPassing clouds.1 mph93%29.68 "HgN/A
7:00 AM21 °FClear.1 mph93%29.71 "Hg10 mi
6:30 AM21 °FPassing clouds.1 mph93%29.71 "HgN/A
6:00 AM23 °FPassing clouds.1 mph93%29.71 "HgN/A
5:30 AM23 °FPassing clouds.3 mph93%29.71 "HgN/A
5:00 AM23 °FPassing clouds.3 mph93%29.71 "HgN/A
4:30 AM27 °FPassing clouds.1 mph93%29.71 "HgN/A
4:00 AM27 °FPassing clouds.1 mph93%29.71 "HgN/A
3:30 AM25 °FPassing clouds.3 mph86%29.71 "HgN/A
3:00 AM25 °FPassing clouds.1 mph93%29.71 "HgN/A
2:30 AM27 °FPassing clouds.1 mph86%29.71 "HgN/A
2:00 AM25 °FPassing clouds.1 mph93%29.71 "HgN/A
1:30 AM25 °FPassing clouds.1 mph86%29.71 "HgN/A
1:00 AM23 °FPassing clouds.1 mph93%29.71 "HgN/A
12:30 AM25 °FPassing clouds.3 mph86%29.71 "HgN/A
12:00 AM25 °FPassing clouds.1 mph86%29.71 "HgN/A
11:30 PM
Sat, Oct 3
25 °FPassing clouds.1 mph93%29.71 "HgN/A
11:00 PM27 °FPassing clouds.1 mph86%29.71 "HgN/A
10:30 PM27 °FPassing clouds.1 mph86%29.71 "HgN/A
10:00 PM30 °FPassing clouds.1 mph80%29.71 "HgN/A
9:30 PM32 °FPassing clouds.3 mph75%29.71 "HgN/A
9:00 PM32 °FPassing clouds.3 mph75%29.68 "HgN/A
8:30 PM34 °FPassing clouds.3 mph70%29.68 "HgN/A
8:00 PM34 °FPassing clouds.3 mph70%29.68 "HgN/A
Weather by CustomWeather, © 2015

See weather overviewHow to use our weather pages